"2009-09-24 00:00:00",1267487,5.093,15.03,7.814,1.265,10.43,102.7199,6.242,7.421,66.42,0,109.9,13.49,7.02,337.0
"2009-09-24 00:00:30",1267488,5.432,13.41,6.675,1.137,10.67,102.7262,6.258,7.458,66.37,0,109.9,13.49,7.03,335.4
"2009-09-24 00:01:00",1267489,4.242,14.66,6.768,1.16,9.04,102.7265,6.259,7.323,66.12,0,109.9,13.49,7.03,336.7
"2009-09-24 00:01:30",1267490,4.049,0.603,4.459,0.45,6.527,102.7282,6.263,7.229,65.94,0,109.9,13.52,7.04,322.6
"2009-09-24 00:02:00",1267491,4.983,2.483,6.143,1.357,8.33,102.7276,6.262,7.349,65.96,0,109.9,13.49,7.04,324.5
"2009-09-24 00:02:30",1267492,6.125,6.048,7.758,1.197,9.9,102.7279,6.262,7.375,65.98,0,109.9,13.49,7.04,328.0
"2009-09-24 00:03:00",1267493,7.201,2.726,6.118,1.723,10.79,102.7325,6.274,7.51,66.18,0,109.9,13.5,7.05,324.7
"2009-09-24 00:03:30",1267494,8.2,359.4,6.938,1.236,11.29,102.7308,6.27,7.503,66.42,0,109.9,13.49,7.04,321.4
"2009-09-24 00:04:00",1267495,6.933,1.636,6.312,1.347,10.75,102.7293,6.266,7.493,66.5,0,109.9,13.49,7.04,323.6
"2009-09-24 00:04:30",1267496,7.839,352.6,6.545,1.067,8.73,102.7302,6.268,7.276,66.61,0,109.9,13.49,7.04,314.6
"2009-09-24 00:05:00",1267497,7.641,354.1,6.417,1.289,8.89,102.7314,6.271,7.378,66.82,0,109.9,13.49,7.05,316.1
"2009-09-24 00:05:30",1267498,5.925,357.5,6.739,1.194,8.65,102.7308,6.27,7.436,67.03,0,109.9,13.48,7.04,319.5
"2009-09-24 00:06:00",1267499,6.843,5.742,5.187,1.022,11.22,102.7308,6.27,7.471,66.99,0,109.9,13.48,7.04,327.7
"2009-09-24 00:06:30",1267500,6.31,5.862,6.217,1.495,10.32,102.7296,6.267,7.501,66.78,0,109.8,13.48,7.04,327.9
"2009-09-24 00:07:00",1267501,6.993,5.081,6.82,1.634,10.58,102.7328,6.275,7.469,66.64,0,109.9,13.48,7.05,327.1
"2009-09-24 00:07:30",1267502,3.863,4.072,3.733,0.683,7.22,102.7336,6.277,7.314,66.33,0,109.9,13.48,7.05,326.1
"2009-09-24 00:08:00",1267503,5.043,5.489,9.26,0.973,8.8,102.7413,6.297,7.356,66.21,0,109.9,13.48,7.07,327.5
"2009-09-24 00:08:30",1267504,6.93,1.305,7.114,1.312,9.43,102.7528,6.326,7.433,66.54,0,109.9,13.48,7.10,323.3
"2009-09-24 00:09:00",1267505,7.578,1.904,6.181,1.922,10.11,102.7585,6.341,7.46,66.59,0,109.9,13.48,7.11,323.9
"2009-09-24 00:09:30",1267506,7.371,6.195,6.298,0.893,11.4,102.7679,6.365,7.616,66.77,0,109.9,13.48,7.14,328.2
"2009-09-24 00:10:00",1267507,6.464,3.86,7.298,1.403,10.13,102.767,6.362,7.533,66.54,0,109.9,13.48,7.14,325.9
"2009-09-24 00:10:30",1267508,7.446,0.165,5.152,1.82,9.96,102.7667,6.362,7.541,66.45,0,109.9,13.48,7.14,322.2
"2009-09-24 00:11:00",1267509,6.546,356.6,4.635,1.284,8.43,102.7653,6.358,7.437,66.36,0,109.9,13.49,7.13,318.6
"2009-09-24 00:11:30",1267510,5.232,359,5.478,1.521,7.897,102.7641,6.355,7.401,66.16,0,109.9,13.49,7.13,321.0
"2009-09-24 00:12:00",1267511,5.311,14.09,13,1.575,9.43,102.7676,6.364,7.511,66.09,0,109.9,13.49,7.14,336.1
"2009-09-24 00:12:30",1267512,5.912,10.04,7.474,1.974,10.41,102.7769,6.387,7.521,66.01,0,109.9,13.49,7.16,332.0
"2009-09-24 00:13:00",1267513,6.117,3.963,8.49,1.504,10.11,102.7836,6.405,7.492,65.86,0,109.9,13.49,7.18,326.0
"2009-09-24 00:13:30",1267514,6.647,356.1,5.577,1.453,8.85,102.7906,6.423,7.527,65.87,0,109.9,13.49,7.20,318.1
"2009-09-24 00:14:00",1267515,7.487,4.073,5.361,1.357,11.03,102.798,6.442,7.548,65.72,0,109.9,13.49,7.22,326.1
"2009-09-24 00:14:30",1267516,6.854,352.2,5.417,0.95,7.882,102.7951,6.434,7.484,65.49,0,109.9,13.49,7.21,314.2
"2009-09-24 00:15:00",1267517,7.259,1.141,6.429,1.261,10.59,102.7966,6.438,7.622,65.53,0,109.9,13.49,7.21,323.1
"2009-09-24 00:15:30",1267518,6.956,7.074,6.805,1.426,10.53,102.7992,6.444,7.622,65.47,0,109.9,13.48,7.22,329.1
"2009-09-24 00:16:00",1267519,6.054,2.6,7.49,1.305,9.62,102.8101,6.472,7.668,65.43,0,109.9,13.49,7.25,324.6
"2009-09-24 00:16:30",1267520,6.942,4.339,8.22,1.194,10.44,102.8186,6.494,7.545,65.21,0,109.9,13.49,7.27,326.3
"2009-09-24 00:17:00",1267521,6.519,7.508,7.792,1.323,10.86,102.8285,6.519,7.669,65.19,0,109.9,13.49,7.29,329.5
"2009-09-24 00:17:30",1267522,5.097,5.807,4.617,1.614,8.76,102.827,6.516,7.46,64.89,0,109.9,13.49,7.29,327.8
"2009-09-24 00:18:00",1267523,4.426,2.212,5.817,1.41,8.27,102.8261,6.513,7.598,64.88,0,109.9,13.49,7.29,324.2
"2009-09-24 00:18:30",1267524,6.303,3.714,7.716,1.16,10.11,102.8267,6.515,7.672,64.73,0,109.9,13.49,7.29,325.7
"2009-09-24 00:19:00",1267525,6.323,5.04,7.122,1.253,10.2,102.8412,6.552,7.577,64.36,0,109.9,13.49,7.33,327.0
"2009-09-24 00:19:30",1267526,6.324,2.404,6.855,1.293,9.65,102.8552,6.588,7.657,64.28,0,109.9,13.49,7.36,324.4
"2009-09-24 00:20:00",1267527,7.014,0.893,6.523,1.267,10.3,102.8601,6.6,7.7,64.2,0,109.9,13.49,7.38,322.9
"2009-09-24 00:20:30",1267528,7.745,357.7,6.885,1.234,10.42,102.8612,6.603,7.709,64.17,0,109.9,13.49,7.38,319.7
"2009-09-24 00:21:00",1267529,7.32,350.7,6.078,1.189,8.88,102.8592,6.598,7.706,64.26,0,109.9,13.49,7.37,312.7
"2009-09-24 00:21:30",1267530,7.219,0.689,10.1,1.004,10.09,102.8654,6.614,7.753,64.39,0,109.9,13.49,7.39,322.7
"2009-09-24 00:22:00",1267531,7.796,356.7,6.29,1.438,10.05,102.8807,6.653,7.682,64.24,0,109.9,13.48,7.43,318.7
"2009-09-24 00:22:30",1267532,7.524,359.9,7.596,1.09,11.22,102.8896,6.676,7.834,64.29,0,109.9,13.48,7.45,321.9
"2009-09-24 00:23:00",1267533,7.58,1.396,8.43,0.953,11.41,102.8916,6.681,7.813,64.36,0,109.9,13.48,7.46,323.4
"2009-09-24 00:23:30",1267534,5.871,3.428,7.003,1.624,10.7,102.8922,6.682,7.817,64.2,0,109.9,13.48,7.46,325.4
"2009-09-24 00:24:00",1267535,5.557,353.9,4.328,1.136,7.959,102.8907,6.678,7.77,63.97,0,109.9,13.48,7.45,315.9
"2009-09-24 00:24:30",1267536,8.04,1.022,7.11,1.211,11.11,102.8972,6.695,7.778,63.84,0,109.9,13.48,7.47,323.0
"2009-09-24 00:25:00",1267537,7.391,355.2,5.453,1.478,9.34,102.9077,6.722,7.749,63.78,0,109.9,13.48,7.50,317.2
"2009-09-24 00:25:30",1267538,8.73,357,5.852,1.281,11.27,102.9164,6.744,7.935,63.93,0,109.9,13.48,7.52,319.0
"2009-09-24 00:26:00",1267539,8.67,356.7,6.76,1.144,11.05,102.9235,6.762,7.906,63.97,0,109.9,13.48,7.54,318.7
"2009-09-24 00:26:30",1267540,7.828,356.2,7.013,1.211,10.45,102.9235,6.762,7.918,63.94,0,109.9,13.48,7.54,318.2
"2009-09-24 00:27:00",1267541,6.86,351.8,5.008,0.944,8.14,102.9232,6.761,7.813,63.86,0,109.9,13.48,7.54,313.8
"2009-09-24 00:27:30",1267542,7.539,2.964,6.508,1.336,10.73,102.9244,6.764,7.862,63.83,0,109.9,13.48,7.54,325.0
"2009-09-24 00:28:00",1267543,6.655,355.9,5.14,2.122,8.96,102.9226,6.76,7.825,63.85,0,109.9,13.48,7.54,317.9
"2009-09-24 00:28:30",1267544,8.58,357.2,5.702,1.248,10.69,102.9294,6.777,7.969,64.18,0,109.9,13.48,7.55,319.2
"2009-09-24 00:29:00",1267545,8.63,356.9,6.343,1.298,10.91,102.9364,6.795,8,63.92,0,109.9,13.48,7.57,318.9
"2009-09-24 00:29:30",1267546,8.4,357.8,5.846,1.296,11,102.9368,6.796,8.02,63.71,0,109.9,13.48,7.57,319.8
"2009-09-24 00:30:00",1267547,7.41,355.3,5.74,1.423,8.95,102.9341,6.789,7.85,63.42,0,110,13.48,7.56,317.3
"2009-09-24 00:30:30",1267548,6.369,355.5,5.52,1.238,8.44,102.9313,6.782,7.973,63.83,0,109.9,13.48,7.56,317.5
"2009-09-24 00:31:00",1267549,6.402,7.735,5.732,1.306,10.7,102.9327,6.786,8.01,64.12,0,109.9,13.48,7.56,329.7
"2009-09-24 00:31:30",1267550,6.663,4.414,6.221,1.338,10.59,102.9355,6.793,7.956,64.13,0,109.9,13.48,7.57,326.4
"2009-09-24 00:32:00",1267551,6.729,6.304,6.895,1.139,10.86,102.9383,6.8,7.992,64,0,109.9,13.48,7.58,328.3
"2009-09-24 00:32:30",1267552,7.032,4.941,6.823,1.15,10.79,102.9374,6.798,7.958,63.92,0,109.9,13.48,7.57,326.9
"2009-09-24 00:33:00",1267553,7.354,358.8,7.149,1.543,9.87,102.9394,6.803,8.01,63.86,0,109.9,13.48,7.58,320.8
"2009-09-24 00:33:30",1267554,5.409,359.1,7.759,0.845,8.79,102.942,6.809,7.878,63.53,0,109.9,13.48,7.59,321.1
"2009-09-24 00:34:00",1267555,6.997,1.484,8.24,1.797,9.79,102.942,6.809,7.975,63.64,0,109.9,13.48,7.59,323.5
"2009-09-24 00:34:30",1267556,7.566,356.3,6.08,1.781,9.82,102.9434,6.813,8,63.55,0,109.9,13.48,7.59,318.3
"2009-09-24 00:35:00",1267557,8.07,351.9,6.629,1.408,10.04,102.9468,6.822,8.01,63.54,0,109.9,13.48,7.60,313.9
"2009-09-24 00:35:30",1267558,9.21,356.7,6.836,1.27,10.94,102.9473,6.823,8.02,63.45,0,109.9,13.48,7.60,318.7
"2009-09-24 00:36:00",1267559,8.64,359.8,5.931,1.328,11.15,102.9496,6.829,8,63.27,0,109.9,13.48,7.60,321.8
"2009-09-24 00:36:30",1267560,6.971,352.7,5.467,0.73,8.29,102.9499,6.829,7.893,63.29,0,109.9,13.48,7.61,314.7
"2009-09-24 00:37:00",1267561,7.644,359.8,6.346,1.324,10.15,102.9501,6.83,8.02,63.51,0,109.9,13.48,7.61,321.8
"2009-09-24 00:37:30",1267562,7.114,1.059,7.338,1.047,10.22,102.9504,6.831,8.01,63.67,0,109.9,13.48,7.61,323.1
"2009-09-24 00:38:00",1267563,7.891,357.8,7.643,1.118,10.13,102.9501,6.83,8.04,63.82,0,109.9,13.48,7.61,319.8
"2009-09-24 00:38:30",1267564,7.019,3.436,9.16,1.298,10.5,102.9501,6.83,8.1,63.79,0,109.9,13.48,7.61,325.4
"2009-09-24 00:39:00",1267565,6.754,6.193,6.632,1.591,11.07,102.9501,6.83,8.01,63.43,0,109.9,13.47,7.61,328.2
"2009-09-24 00:39:30",1267566,6.952,354.9,5.858,1.423,7.989,102.9501,6.83,7.846,63.19,0,109.9,13.47,7.61,316.9
"2009-09-24 00:40:00",1267567,8.23,358,6.168,1.373,10.01,102.9501,6.83,8.05,63.23,0,109.9,13.47,7.61,320.0
"2009-09-24 00:40:30",1267568,7.603,4.226,5.386,1.994,11.19,102.9501,6.83,8.1,63.38,0,109.9,13.47,7.61,326.2
"2009-09-24 00:41:00",1267569,7.423,2.561,6.247,1.62,10.83,102.9519,6.835,8.03,63.28,0,109.9,13.47,7.61,324.6
"2009-09-24 00:41:30",1267570,7.984,358.3,6.465,1.459,10.75,102.9583,6.851,8.1,63.24,0,109.9,13.47,7.63,320.3
"2009-09-24 00:42:00",1267571,7.946,359.6,6.256,1.292,10.81,102.9682,6.876,8.09,63.12,0,109.9,13.47,7.65,321.6
"2009-09-24 00:42:30",1267572,6.338,355.4,5.441,1.256,8.64,102.9773,6.9,7.869,62.63,0,109.9,13.47,7.68,317.4
"2009-09-24 00:43:00",1267573,7.489,357.7,6.371,1.793,10.2,102.9838,6.916,8.11,62.71,0,109.9,13.48,7.69,319.7
"2009-09-24 00:43:30",1267574,7.524,356.1,8.58,1.164,10.26,102.9841,6.917,8.11,62.4,0,109.9,13.48,7.69,318.1
"2009-09-24 00:44:00",1267575,7.539,356.6,5.89,1.473,10.17,102.9841,6.917,8.11,62.29,0,109.9,13.48,7.69,318.6
"2009-09-24 00:44:30",1267576,8.2,1.144,5.257,1.523,11.32,102.9841,6.917,8.08,62.15,0,109.9,13.48,7.69,323.1
"2009-09-24 00:45:00",1267577,7.759,354.9,5.71,1.352,9.67,102.9841,6.917,8.01,61.92,0,109.9,13.48,7.69,316.9
"2009-09-24 00:45:30",1267578,9,357.1,6.094,1.147,11.31,102.9841,6.917,8.09,62,0,109.9,13.48,7.69,319.1
"2009-09-24 00:46:00",1267579,8.36,354.6,5.599,1.357,9.94,102.9872,6.925,8.09,61.82,0,109.9,13.48,7.70,316.6
"2009-09-24 00:46:30",1267580,8.35,355.1,6.149,1.287,10.26,102.9889,6.929,8.15,61.63,0,109.9,13.48,7.71,317.1
"2009-09-24 00:47:00",1267581,8.45,353.7,6.659,1.342,10.42,102.9937,6.941,8.15,61.47,0,109.9,13.48,7.72,315.7
"2009-09-24 00:47:30",1267582,8.84,355.1,7.269,1.179,11.09,102.9939,6.942,8.15,61.49,0,109.9,13.48,7.72,317.1
"2009-09-24 00:48:00",1267583,8.6,355.4,6.441,1.115,11.2,103.005,6.97,8.08,61.55,0,110,13.48,7.75,317.4
"2009-09-24 00:48:30",1267584,7.143,357.5,9.24,1.233,10.7,103.012,6.988,8.11,61.73,0,109.9,13.48,7.76,319.5
"2009-09-24 00:49:00",1267585,8.42,350.1,9,1.283,9.67,103.0171,7.001,8.06,61.81,0,109.9,13.48,7.78,312.1
"2009-09-24 00:49:30",1267586,7.775,355.6,6.997,1.289,10.24,103.0177,7.003,8.18,61.86,0,109.9,13.48,7.78,317.6
"2009-09-24 00:50:00",1267587,8.76,354.2,5.768,1.29,10.79,103.018,7.004,8.18,61.84,0,109.9,13.48,7.78,316.2
"2009-09-24 00:50:30",1267588,8.81,348.5,6.812,1.167,10.38,103.018,7.004,8.23,61.77,0,109.9,13.48,7.78,310.5
"2009-09-24 00:51:00",1267589,8.69,358.1,6.126,1.2,11.8,103.018,7.004,8.18,61.53,0,109.9,13.48,7.78,320.1
"2009-09-24 00:51:30",1267590,7.471,357.9,7.711,1.171,10.56,103.018,7.004,8.13,61.32,0,109.9,13.48,7.78,319.9
"2009-09-24 00:52:00",1267591,7.61,347.8,5.357,1.234,9.32,103.0228,7.016,8.17,61.26,0,109.9,13.48,7.79,309.8
"2009-09-24 00:52:30",1267592,8.71,350.2,6.865,1.056,10.86,103.031,7.037,8.21,61.38,0,109.9,13.48,7.81,312.2
"2009-09-24 00:53:00",1267593,7.976,354.3,6.502,1.263,10.1,103.0352,7.048,8.28,61.42,0,109.9,13.48,7.82,316.3
"2009-09-24 00:53:30",1267594,8,356.3,6.547,1.578,10.47,103.0397,7.059,8.15,60.88,0,109.9,13.48,7.84,318.3
"2009-09-24 00:54:00",1267595,8.48,354.1,6.006,1.497,10.71,103.0442,7.071,8.24,60.91,0,109.9,13.48,7.85,316.1
"2009-09-24 00:54:30",1267596,8.4,352.5,6.133,1.362,10.87,103.0476,7.079,8.28,61.08,0,109.9,13.47,7.86,314.5
"2009-09-24 00:55:00",1267597,7.252,345.7,6.978,1.264,8.91,103.0508,7.087,8.23,61.17,0,109.9,13.47,7.86,307.7
"2009-09-24 00:55:30",1267598,8.21,352.6,6.537,1.362,10.53,103.0519,7.09,8.29,61.35,0,109.9,13.47,7.87,314.6
"2009-09-24 00:56:00",1267599,8.46,356.2,5.112,1.23,11.22,103.0519,7.09,8.26,61.32,0,109.9,13.47,7.87,318.2
"2009-09-24 00:56:30",1267600,7.761,352.6,8.39,0.912,9.58,103.0519,7.09,8.29,61.32,0,109.9,13.47,7.87,314.6
"2009-09-24 00:57:00",1267601,8.61,354.6,5.706,1.189,11.07,103.0519,7.09,8.25,60.88,0,110,13.47,7.87,316.6
"2009-09-24 00:57:30",1267602,8.01,352.2,6.79,1.141,10.91,103.0519,7.09,8.32,61.06,0,109.9,13.47,7.87,314.2
"2009-09-24 00:58:00",1267603,7.251,348.7,5.521,0.95,8.69,103.0519,7.09,8.2,61.14,0,109.9,13.47,7.87,310.7
"2009-09-24 00:58:30",1267604,8.59,356,6.343,1.167,10.98,103.0519,7.09,8.33,60.85,0,109.9,13.47,7.87,318.0
"2009-09-24 00:59:00",1267605,8.82,355.4,6.369,1.116,11.28,103.0519,7.09,8.3,60.69,0,109.9,13.47,7.87,317.4
"2009-09-24 00:59:30",1267606,7.592,350.4,7.728,1.058,9.12,103.0519,7.09,8.16,60.65,0,109.9,13.47,7.87,312.4
"2009-09-24 01:00:00",1267607,7.534,358.7,6.196,1.199,11.33,103.0519,7.09,8.34,60.5,0,109.9,13.47,7.87,320.7
"2009-09-24 01:00:30",1267608,8.1,352.2,6.648,1.279,10.84,103.0519,7.09,8.32,60.35,0,109.9,13.48,7.87,314.2
"2009-09-24 01:01:00",1267609,7.528,352.2,5.656,0.829,9.27,103.0519,7.09,8.24,60.12,0,109.9,13.48,7.87,314.2
"2009-09-24 01:01:30",1267610,8.77,357.2,5.503,1.148,11.28,103.0519,7.09,8.34,59.76,0,109.9,13.47,7.87,319.2
"2009-09-24 01:02:00",1267611,8.6,355.6,6.126,1.161,11.36,103.0519,7.09,8.35,59.67,0,109.9,13.48,7.87,317.6
"2009-09-24 01:02:30",1267612,7.867,352.8,6.855,1.226,9.86,103.0519,7.09,8.2,59.5,0,109.9,13.48,7.87,314.8
"2009-09-24 01:03:00",1267613,8.5,354,6.482,1.262,10.88,103.0519,7.09,8.31,59.37,0,109.9,13.48,7.87,316.0
"2009-09-24 01:03:30",1267614,8.81,355.2,6.207,1.103,11.5,103.0519,7.09,8.31,59.32,0,109.9,13.48,7.87,317.2
"2009-09-24 01:04:00",1267615,8.83,355.3,6.633,1.231,10.97,103.0519,7.09,8.23,59.19,0,109.9,13.48,7.87,317.3
"2009-09-24 01:04:30",1267616,8.64,354.2,6.192,1.336,10.4,103.0519,7.09,8.32,59.21,0,109.9,13.48,7.87,316.2
"2009-09-24 01:05:00",1267617,7.772,352.4,6.03,1.175,9.74,103.0522,7.091,8.31,59.12,0,109.9,13.48,7.87,314.4
"2009-09-24 01:05:30",1267618,8.6,355.3,6.34,1.25,10.78,103.0522,7.091,8.31,59.06,0,109.9,13.48,7.87,317.3
"2009-09-24 01:06:00",1267619,8.63,353.9,6.738,1.251,10.64,103.0533,7.094,8.35,59.08,0,109.9,13.48,7.87,315.9
"2009-09-24 01:06:30",1267620,9.1,355.2,6.357,1.121,11.39,103.0564,7.102,8.33,58.99,0,109.9,13.48,7.88,317.2
"2009-09-24 01:07:00",1267621,8.13,352,6.187,1.309,9.84,103.0575,7.105,8.27,58.89,0,109.9,13.48,7.88,314.0
"2009-09-24 01:07:30",1267622,8.76,356.3,6.42,1.199,10.72,103.0606,7.113,8.32,58.89,0,109.9,13.48,7.89,318.3
"2009-09-24 01:08:00",1267623,7.881,354.6,6.698,1.211,10.02,103.0663,7.127,8.33,58.81,0,109.9,13.47,7.90,316.6
"2009-09-24 01:08:30",1267624,7.88,352.7,6.072,1.214,9.5,103.0688,7.133,8.22,58.66,0,109.9,13.48,7.91,314.7
"2009-09-24 01:09:00",1267625,8.14,355.8,6.716,1.159,10.36,103.0705,7.138,8.35,58.78,0,109.9,13.47,7.91,317.8
"2009-09-24 01:09:30",1267626,9.03,0.749,4.649,0.862,12.3,103.0708,7.139,8.36,58.78,0,109.9,13.48,7.92,322.7
"2009-09-24 01:10:00",1267627,8.09,354.9,7.409,1.087,10.38,103.0748,7.149,8.34,58.82,0,109.9,13.47,7.93,316.9
"2009-09-24 01:10:30",1267628,8.62,352.9,6.16,1.287,10.64,103.0762,7.152,8.37,58.81,0,109.9,13.47,7.93,314.9
"2009-09-24 01:11:00",1267629,9.21,356.2,5.023,1.069,11.51,103.077,7.154,8.33,58.61,0,109.9,13.47,7.93,318.2
"2009-09-24 01:11:30",1267630,8.66,352.9,5.711,1.259,10.68,103.0796,7.161,8.38,58.54,0,109.9,13.47,7.94,314.9
"2009-09-24 01:12:00",1267631,8.54,353.2,6.572,1.215,10.7,103.083,7.17,8.32,58.41,0,109.9,13.47,7.95,315.2
"2009-09-24 01:12:30",1267632,8.53,353.7,7.039,1.274,10.9,103.0838,7.172,8.31,58.43,0,109.9,13.47,7.95,315.7
"2009-09-24 01:13:00",1267633,8.7,354.3,6.336,1.132,11.77,103.0852,7.175,8.42,58.53,0,109.9,13.47,7.95,316.3
"2009-09-24 01:13:30",1267634,7.863,350.9,7.996,1.246,9.54,103.0852,7.175,8.27,58.39,0,109.9,13.47,7.95,312.9
"2009-09-24 01:14:00",1267635,8.18,354.3,6.282,1.235,10.19,103.0858,7.177,8.33,58.36,0,109.9,13.47,7.95,316.3
"2009-09-24 01:14:30",1267636,8.11,355,6.04,1.263,10.76,103.0858,7.177,8.37,58.39,0,109.9,13.47,7.95,317.0
"2009-09-24 01:15:00",1267637,7.913,352.5,5.664,1.297,9.9,103.0858,7.177,8.23,58.22,0,109.9,13.47,7.95,314.5
"2009-09-24 01:15:30",1267638,8.73,357.2,5.974,1.205,11.55,103.0858,7.177,8.37,58.26,0,109.9,13.47,7.95,319.2
"2009-09-24 01:16:00",1267639,8.54,358,5.821,1.242,11.28,103.0858,7.177,8.41,58.15,0,109.9,13.47,7.95,320.0
"2009-09-24 01:16:30",1267640,7.947,353.5,6.338,1.28,9.77,103.0858,7.177,8.3,57.91,0,109.9,13.47,7.95,315.5
"2009-09-24 01:17:00",1267641,8.9,357.9,5.67,1.072,11.39,103.0858,7.177,8.41,58.15,0,109.9,13.47,7.95,319.9
"2009-09-24 01:17:30",1267642,8.41,355,6.441,1.311,10.34,103.0858,7.177,8.31,58.16,0,109.9,13.47,7.95,317.0
"2009-09-24 01:18:00",1267643,6.988,350.5,3.226,0.587,8.16,103.0858,7.177,8.26,58.22,0,109.9,13.47,7.95,312.5
"2009-09-24 01:18:30",1267644,8.56,358.4,6.5,1.279,11.24,103.0858,7.177,8.44,58.56,0,109.9,13.47,7.95,320.4
"2009-09-24 01:19:00",1267645,9.04,358.3,5.814,1.13,11.67,103.0858,7.177,8.43,58.64,0,109.9,13.47,7.95,320.3
"2009-09-24 01:19:30",1267646,8.37,353.1,6.683,1.257,9.86,103.0858,7.177,8.3,58.53,0,109.9,13.47,7.95,315.1
"2009-09-24 01:20:00",1267647,9.01,357.5,5.812,1.086,11.53,103.0858,7.177,8.42,58.68,0,109.9,13.47,7.95,319.5
"2009-09-24 01:20:30",1267648,8.14,356.2,6.369,1.368,10.44,103.0858,7.177,8.36,58.67,0,109.9,13.47,7.95,318.2
"2009-09-24 01:21:00",1267649,7.655,354.7,6.437,1.26,9.67,103.0861,7.178,8.32,58.62,0,109.9,13.47,7.95,316.7
"2009-09-24 01:21:30",1267650,8.48,357.6,6.319,1.194,10.83,103.0883,7.183,8.37,58.64,0,109.9,13.47,7.96,319.6
"2009-09-24 01:22:00",1267651,8.11,355.8,6.537,1.35,10.56,103.0895,7.186,8.37,58.6,0,109.9,13.47,7.96,317.8
"2009-09-24 01:22:30",1267652,8.08,356.4,6.768,1.485,10.63,103.0948,7.2,8.38,58.49,0,110,13.47,7.98,318.4
"2009-09-24 01:23:00",1267653,8.13,357.3,7.027,1.07,10.69,103.1002,7.214,8.43,58.49,0,109.9,13.48,7.99,319.3
"2009-09-24 01:23:30",1267654,8.34,359.6,5.262,1.243,11.27,103.1044,7.224,8.43,58.45,0,109.9,13.47,8.00,321.6
"2009-09-24 01:24:00",1267655,7.054,351.3,3.291,0.849,7.951,103.1112,7.242,8.28,58.18,0,109.9,13.47,8.02,313.3
"2009-09-24 01:24:30",1267656,8.17,0.047,6.143,1.134,11.4,103.1163,7.255,8.44,58.27,0,109.9,13.47,8.03,322.0
"2009-09-24 01:25:00",1267657,7.504,357.8,6.669,1.223,10.11,103.1186,7.261,8.31,58.07,0,109.9,13.47,8.04,319.8
"2009-09-24 01:25:30",1267658,7.351,357.7,6.507,1.335,10.46,103.1197,7.263,8.44,58.12,0,109.9,13.47,8.04,319.7
"2009-09-24 01:26:00",1267659,6.93,3.948,6.184,1.16,11.32,103.1197,7.263,8.47,58.17,0,109.9,13.47,8.04,325.9
"2009-09-24 01:26:30",1267660,6.458,2.572,7.101,1.307,10.64,103.1197,7.263,8.42,58.14,0,109.9,13.47,8.04,324.6
"2009-09-24 01:27:00",1267661,5.679,1.518,6.405,1.362,9.31,103.12,7.264,8.29,57.92,0,110,13.47,8.04,323.5
"2009-09-24 01:27:30",1267662,5.85,4.044,7.154,1.257,10.07,103.1259,7.279,8.39,58.05,0,110,13.47,8.06,326.0
"2009-09-24 01:28:00",1267663,5.906,0.731,5.958,1.269,9.8,103.1355,7.304,8.34,57.74,0,109.9,13.47,8.08,322.7
"2009-09-24 01:28:30",1267664,5.838,3.948,6.649,1.304,10.57,103.1316,7.294,8.42,57.74,0,109.9,13.47,8.07,325.9
"2009-09-24 01:29:00",1267665,5.523,4.516,6.505,1.309,10.31,103.1395,7.314,8.4,57.93,0,109.9,13.47,8.09,326.5
"2009-09-24 01:29:30",1267666,5.609,7.96,6.547,1.304,10.37,103.1449,7.328,8.39,58.08,0,109.9,13.47,8.11,330.0
"2009-09-24 01:30:00",1267667,4.583,6.408,6.089,1.154,9.3,103.1505,7.342,8.5,58.41,0,109.9,13.47,8.12,328.4
"2009-09-24 01:30:30",1267668,4.568,7.86,7.328,1.33,9.11,103.1536,7.35,8.34,58.5,0,109.9,13.47,8.13,329.9
"2009-09-24 01:31:00",1267669,4.232,3.18,5.542,0.838,8.62,103.1536,7.35,8.5,58.6,0,109.9,13.47,8.13,325.2
"2009-09-24 01:31:30",1267670,5.81,9.96,6.413,1.145,11.37,103.1536,7.35,8.47,58.21,0,109.9,13.47,8.13,332.0
"2009-09-24 01:32:00",1267671,5.519,8.41,6.312,1.295,11.39,103.1536,7.35,8.53,57.88,0,109.9,13.47,8.13,330.4
"2009-09-24 01:32:30",1267672,5.349,9.92,7.269,1.071,11.32,103.1536,7.35,8.52,57.87,0,109.9,13.47,8.13,331.9
"2009-09-24 01:33:00",1267673,5.227,6.54,7.631,1.25,10.06,103.1536,7.35,8.49,57.93,0,109.9,13.47,8.13,328.5
"2009-09-24 01:33:30",1267674,4.982,6.569,6.363,1.313,9.97,103.1536,7.35,8.49,57.95,0,109.9,13.48,8.13,328.6
"2009-09-24 01:34:00",1267675,4.409,4.547,5.437,1.014,8.95,103.1542,7.352,8.47,57.86,0,109.9,13.48,8.13,326.5
"2009-09-24 01:34:30",1267676,4.353,6.232,5.21,1.096,9.2,103.1578,7.361,8.49,57.84,0,109.9,13.48,8.14,328.2
"2009-09-24 01:35:00",1267677,5.687,10.69,6.487,1.205,11.89,103.1635,7.375,8.54,57.92,0,109.9,13.48,8.15,332.7
"2009-09-24 01:35:30",1267678,5.255,7.418,6.243,1.343,10.61,103.1689,7.389,8.51,57.77,0,109.9,13.48,8.17,329.4
"2009-09-24 01:36:00",1267679,4.169,7.935,5.948,1.047,8.77,103.17,7.392,8.4,57.59,0,109.9,13.48,8.17,329.9
"2009-09-24 01:36:30",1267680,5.727,11.57,5.847,1.259,11.28,103.1703,7.393,8.57,57.84,0,109.9,13.48,8.17,333.6
"2009-09-24 01:37:00",1267681,5.261,10.1,7.943,1.376,10.59,103.1711,7.395,8.51,57.86,0,109.9,13.48,8.17,332.1
"2009-09-24 01:37:30",1267682,3.796,6.064,3.354,0.253,7.813,103.1765,7.409,8.36,57.8,0,109.9,13.51,8.19,328.1
"2009-09-24 01:38:00",1267683,4.996,17.05,6.646,1.292,10.46,103.1776,7.412,8.55,58.26,0,109.9,13.48,8.19,339.0
"2009-09-24 01:38:30",1267684,5.235,17.44,8.02,1.225,11.25,103.1788,7.414,8.61,58.63,0,110,13.48,8.19,339.4
"2009-09-24 01:39:00",1267685,5.409,20.37,6.315,1.17,10.36,103.185,7.43,8.51,58.68,0,109.9,13.48,8.21,342.4
"2009-09-24 01:39:30",1267686,5.889,22.22,6.136,1.221,10.99,103.1861,7.433,8.6,58.94,0,109.9,13.48,8.21,344.2
"2009-09-24 01:40:00",1267687,5.66,21.15,6.743,1.35,10.67,103.1872,7.436,8.62,58.85,0,109.9,13.48,8.21,343.1
"2009-09-24 01:40:30",1267688,5.024,17.37,4.888,0.934,8.88,103.1875,7.437,8.53,58.78,0,109.9,13.48,8.21,339.4
"2009-09-24 01:41:00",1267689,6.294,21.93,6.441,1.166,10.01,103.1875,7.437,8.48,59.29,0,109.9,13.48,8.21,343.9
"2009-09-24 01:41:30",1267690,6.56,24.4,6.416,1.35,11.11,103.1875,7.437,8.57,59.67,0,109.9,13.48,8.21,346.4
"2009-09-24 01:42:00",1267691,6.353,22.89,6.982,1.264,11.39,103.1875,7.437,8.64,59.59,0,109.9,13.48,8.21,344.9
"2009-09-24 01:42:30",1267692,6.514,23.67,6.415,1.198,10.37,103.1875,7.437,8.56,59.75,0,109.9,13.48,8.21,345.7
"2009-09-24 01:43:00",1267693,7.233,27.47,6.217,1.244,11.3,103.1875,7.437,8.61,60.07,0,109.9,13.48,8.21,349.5
"2009-09-24 01:43:30",1267694,5.722,20.25,6.075,1.482,9.29,103.1875,7.437,8.44,60.05,0,109.9,13.48,8.21,342.2
"2009-09-24 01:44:00",1267695,5.822,22.47,6.552,1.107,10.8,103.1875,7.437,8.65,60.24,0,109.9,13.47,8.21,344.5
"2009-09-24 01:44:30",1267696,6.096,23.47,7.082,1.569,11.33,103.1875,7.437,8.69,60.16,0,109.9,13.47,8.21,345.5
"2009-09-24 01:45:00",1267697,5.998,23.35,6.302,1.213,10.82,103.1875,7.437,8.61,60.13,0,109.9,13.47,8.21,345.4
"2009-09-24 01:45:30",1267698,6.339,22.65,7.512,1.732,10.3,103.1886,7.44,8.5,59.92,0,109.9,13.47,8.22,344.6
"2009-09-24 01:46:00",1267699,6.366,23.74,6.521,1.359,10.72,103.1906,7.445,8.59,59.88,0,109.9,13.47,8.22,345.7
"2009-09-24 01:46:30",1267700,6.231,23.35,7.222,1.278,10.47,103.1918,7.448,8.6,60,0,109.9,13.47,8.23,345.4
"2009-09-24 01:47:00",1267701,6.806,25.67,6.367,1.21,11.7,103.1983,7.464,8.67,60.32,0,109.9,13.47,8.24,347.7
"2009-09-24 01:47:30",1267702,6.887,27.05,6.505,1.256,11.63,103.2,7.469,8.66,60.5,0,109.9,13.47,8.25,349.0
"2009-09-24 01:48:00",1267703,6.993,26.25,6.547,1.281,12.14,103.2022,7.474,8.69,60.66,0,109.9,13.47,8.25,348.2
"2009-09-24 01:48:30",1267704,5.529,21.51,6.238,1.24,9.98,103.2036,7.478,8.6,60.19,0,109.9,13.47,8.26,343.5
"2009-09-24 01:49:00",1267705,6.137,23.38,7.003,1.427,10.07,103.2036,7.478,8.6,59.9,0,109.9,13.47,8.26,345.4